Regional Weather Roundup
Issued by NWS

Home | Current Version | Previous Version | Text Only | Print | Product List | Glossary Off
Versions: 1 2 3 4 5 6 7 8 9 10 11 12 13 14 15 16 17 18 19 20 21 22 23 24 25 26 27 28 29 30 31 32 33 34 35 36 37 38 39 40 41 42 43 44 45 46 47 48 49 50

000
ASUS43 KBIS 252131
RWRND
NORTH DAKOTA REGIONAL WEATHER ROUNDUP
NATIONAL WEATHER SERVICE EASTERN NORTH DAKOTA/GRAND FORKS ND
400 PM CDT SUN JUN 25 2017

  NOTE: "FAIR" INDICATES FEW OR NO CLOUDS BELOW 12,000 FEET WITH NO
  SIGNIFICANT WEATHER AND/OR OBSTRUCTIONS TO VISIBILITY.

NDZ001>003-009>011-017-252200-
...NORTHWEST NORTH DAKOTA...

CITY           SKY/WX    TMP DP  RH WIND       PRES   REMARKS
WILLISTON      FAIR      75  43  31 N7        30.24F
MINOT          PTSUNNY   67  43  41 N9        30.23S
MINOT AFB      CLOUDY    66  44  44 N13       30.23S
$$

NDZ018>021-031>035-040>046-252200-
...SOUTHWEST NORTH DAKOTA...

CITY           SKY/WX    TMP DP  RH WIND       PRES   REMARKS
BISMARCK       FAIR      68  49  50 S6        30.23F
DICKINSON      FAIR      72  35  25 N12G22    30.22S
GARRISON         N/A     67  43  41 NE13G21   30.22F
HETTINGER      FAIR      75  36  24 N10       30.23F
$$

NDZ004>008-012>016-024-026-027-054-252200-
...NORTHEAST NORTH DAKOTA...

CITY           SKY/WX    TMP DP  RH WIND       PRES   REMARKS
GRAND FORKS    FAIR      67  41  38 NW12      30.18F
GRAND FORKS AF FAIR      66  42  42 N13       30.19F
DEVILS LAKE    CLOUDY    62  40  44 N13G20    30.23S
$$

NDZ022-023-025-028>030-036>039-047>053-252200-
...SOUTHEAST NORTH DAKOTA...

CITY           SKY/WX    TMP DP  RH WIND       PRES   REMARKS
JAMESTOWN      PTSUNNY   63  46  54 W9        30.19F
FARGO          CLOUDY    67  41  38 NW14G26   30.18S
WAHPETON       FAIR      64  41  42 N14       30.19F
$$



USA.gov is the U.S. government's official web portal to all federal, state and local government web resources and services.